Regional Weather Roundup
Issued by NWS New Orleans/Baton Rouge, LA

Home | Current Version | Previous Version | Text Only | Print | Product List | Glossary On
Versions: 1 2 3 4 5 6 7 8 9 10 11 12 13 14 15 16 17 18 19 20 21 22 23 24 25 26 27 28 29 30 31 32 33 34 35 36 37 38 39 40 41 42 43 44 45 46 47 48 49 50
000
ASUS44 KLIX 181405
RWRLIX
NEW ORLEANS REGIONAL WEATHER ROUNDUP
NATIONAL WEATHER SERVICE NEW ORLEANS LA
900 AM CDT FRI APR 18 2014

NOTE: "FAIR" INDICATES FEW OR NO CLOUDS BELOW 12,000 FEET WITH NO
      SIGNIFICANT WEATHER AND/OR OBSTRUCTIONS TO VISIBILITY.
      SKY/WX - SKY CONDITION AND SIGNIFICANT WEATHER.
      TMP - AIR TEMPERATURE.     DP    - DEWPOINT TEMPERATURE.
      RH  - RELATIVE HUMIDITY.   PRES  - PRESSURE.
      HI  - HEAT INDEX.          WCI   - WIND CHILL INDEX.

*  THESE STATIONS ARE NOT NWS OR FAA STATIONS AND ARE NOT UNDER
   NWS QUALITY CONTROL.

LAZ038-040-048-061>063-065>067-069-181500-
SOUTHEAST LOUISIANA

CITY           SKY/WX    TMP DP  RH WIND       PRES   REMARKS
N.O. AUDUBON     N/A     64 N/A N/A MISG        N/A
N.O. INTL ARPT PTSUNNY   64  61  90 N13       30.10S
N.O. LAKEFRONT CLOUDY    63  60  90 NE17      30.10F
N.O. DOWNTOWN* CLOUDY    63  57  82 N7        30.10F
SLIDELL        LGT RAIN  63  60  90 NE6       30.09F
BATON ROUGE    PTSUNNY   66  57  72 NE5       30.13F
BOOTHVILLE     LGT RAIN  61  60  97 N12G20    30.07R FOG
BELLE CHASSE   LGT RAIN  63  59  87 NE8       30.08F
BOGALUSA*        N/A     64  58  83 NE6       30.13S
GALLIANO*      CLOUDY    63  61  93 N13       30.09S
NEW ROADS*       N/A     63  57  81 N7        30.15S
GONZALES*        N/A     64  59  83 N6        30.12S
HAMMOND*       SUNNY     68  59  73 N7        30.12F
HOUMA*         MOSUNNY   64  59  82 N12       30.09F
PORT FOURCHON* CLOUDY    63  61  94 N17G23    30.10R FOG

$$

MSZ070-080>082-181500-
SOUTHERN MISSISSIPPI

CITY           SKY/WX    TMP DP  RH WIND       PRES   REMARKS
MCCOMB         CLOUDY    62  56  80 N8        30.14F
GULFPORT       LGT RAIN  63  59  87 NE13G21   30.08R FOG
BILOXI         CLOUDY    61  60  96 NE16      30.08R
PASCAGOULA     LGT RAIN  60  59  96 N13       30.07S FOG
STENNIS ARPT*  DRIZZLE   55  54  94 N6        30.10R

$$

COASTAL OBSERVATIONS
LAKE AND NEARSHORE STATIONS

STATION/POSITION TIME  TEMP    WIND        PRES    WAVE
                       AIR SEA DIR/SP/G            HT/PER
                 (UTC) (F)     (DEG/KT/KT) (MB)    (FT/S)
PASCAGOULA       1400   61      20/ 11/ 17 1017.0
WAVELAND YACHT   1400   61 65   40/ 11/ 14 1017.9
GRAND ISLE       1400   62 66   10/ 17/ 21 1018.8
SOUTHWEST PASS   1400   64 58  360/ 19/ 22 1017.7
NEW CANAL        1400   62 63   30/ 13/ 15 1019.4
SHELL BEACH      1400   60 61   10/ 19/ 23 1018.6

OFFSHORE STATIONS

STATION/POSITION TIME  TEMP    WIND        PRES    WAVE
                       AIR SEA DIR/SP/G            HT/PER
                 (UTC) (F)     (DEG/KT/KT) (MB)    (FT/S)
64 S DAUPHIN ISL 1303   65 71   30/ 27/ 33 1014.4

$$




USA.gov is the U.S. government's official web portal to all federal, state and local government web resources and services.